Voltar ao catálogo

STARLINK-36534

AtivoComunicaçõesVLEO
NORAD 67496·PAYLOAD·🇺🇸 United States

Lançado Jan 18, 2026 de Cape Canaveral Space Force Station

Loading…

Próximas Passagens (próximas 24 horas)

TLE

AtualizadoSource: CelesTrak SupGP

Época: Sep 14, 2026, 23:17 UTC

1 67496C 26012D   26257.97062500 -.00000739  00000+0 -26775-4 0  2572
2 67496  43.0008 325.6380 0001514 258.3571 250.0956 15.27562051    10

Acompanhe STARLINK-36534 em tempo real com AllMySat

Download on the App Store